ATLAS 5 CENTAUR DEB, 46865

Orbit data source: Space-Track

ATLAS 5 CENTAUR DEB, 46865 is space debris in HEO originally from a launch on Wed, 17 Oct 2018 UTC launched from the Air Force Eastern Test Range (AFETR). Debris objects in space refer to the collection of defunct objects orbiting the Earth. Examples of debris include non-operational satellites, rocket bodies, and fragments generated from explosions, collisions, or faulty payload assembly.

Loading next visibility...
Identifier
46865, 2018-079DW
Orbit
HEO
Country
Flag of USUS
Related business
Flag of USUnited Launch Alliance/Lockheed Martin (US)
Manufacturer
ULA Decatur
Mission
Spacecraft
Bus & Motor
Unknown
Mass
Unknown
Launch date (UTC)
2018-10-17 (8 years ago)
Launch vehicle
Unknown
Launch site
Air Force Eastern Test Range (AFETR)
Object type
Payload
Rocket body
Debris
Shape & HBR
Unknown shape, 1.1 m
Radar Cross Section
RCS unknown

Expand to show TLE details & history
Last TLE update: 21 hours ago

TLE from 21 hours ago
0 ATLAS 5 CENTAUR DEB
1 46865U 18079DW  26237.47092706 -.00000163  00000-0  00000+0 0  9999
2 46865  13.2034  24.0680 4529332 345.0958   4.9149  1.88837124 40087
Epoch: 2026-08-25T11:18Z
TLE epoch observation values (Epoch: 2026-08-25T11:18:08.097Z)
Latitude
-0.00007°
Longitude
-119.17037°
Altitude
8,907.662 km
Speed
6.143 km/s
True Right ascension
01h 36m 24s
True Declination
0° 00' 00"
Sunlit
Object was in daylight at epoch
Visualization orbit readout
Latitude
Unknown
Longitude
Unknown
Altitude
Unknown
Speed
Unknown
Apparent Right ascension
Unknown
Apparent Declination
Unknown
Sunlit
N/A
Visualization observer readout
Local Sidereal Time
23:18:41
Azimuth
Unknown
Elevation
Unknown
Doppler factor
Unknown
Orbital elements
Apogee altitude
33,796.816 km
Perigee altitude
8,748.768 km
Semi-major axis
27,650.929 km
Eccentricity
0.45293
Inclination
13.2034°
RAAN
24.068°
Arg. of periapsis
345.0958°
True anomaly
14.54328°
Mean anomaly
4.9149°
Eccentric anomaly
8.95396°
Mean motion
0.47204 °/min
Orbital period
762.65 mins
BSTAR
0
Loading maneuver chart data...
Computing Atmospheric mass density...

Documentation

Showing up to 5 results
|